TimeCDT,TemperatureF,Dew PointF,Humidity,Sea Level PressureIn,VisibilityMPH,Wind Direction,Wind SpeedMPH,Gust SpeedMPH,PrecipitationIn,Events,Conditions,WindDirDegrees,DateUTC
12:15 AM,38.7,36.3,91,30.41,10.0,Calm,Calm,-,N/A,,Clear,0,2013-10-14 05:15:00
12:35 AM,39.4,37.6,93,30.41,10.0,Calm,Calm,-,N/A,,Clear,0,2013-10-14 05:35:00
12:55 AM,39.4,37.6,93,30.42,10.0,Calm,Calm,-,N/A,,Clear,0,2013-10-14 05:55:00
1:15 AM,38.5,36.7,93,30.42,10.0,Calm,Calm,-,N/A,,Clear,0,2013-10-14 06:15:00
1:35 AM,38.8,37.2,94,30.42,10.0,Calm,Calm,-,N/A,,Clear,0,2013-10-14 06:35:00
1:55 AM,38.5,36.7,93,30.43,10.0,Calm,Calm,-,N/A,,Clear,0,2013-10-14 06:55:00
2:15 AM,38.8,37.2,94,30.44,10.0,NNE,8.1,-,N/A,,Clear,30,2013-10-14 07:15:00
2:35 AM,41.4,38.8,91,30.44,10.0,NE,4.6,-,N/A,,Clear,40,2013-10-14 07:35:00
2:55 AM,42.1,38.7,88,30.45,10.0,NNE,4.6,-,N/A,,Clear,30,2013-10-14 07:55:00
3:15 AM,41.2,38.1,89,30.44,10.0,North,3.5,-,N/A,,Clear,360,2013-10-14 08:15:00
3:35 AM,41.9,38.7,88,30.44,10.0,North,5.8,-,N/A,,Clear,10,2013-10-14 08:35:00
3:55 AM,40.3,37.6,90,30.44,10.0,NNE,4.6,-,N/A,,Clear,20,2013-10-14 08:55:00
4:15 AM,40.5,37.6,89,30.44,10.0,NNE,4.6,-,N/A,,Clear,30,2013-10-14 09:15:00
4:35 AM,41.5,38.1,88,30.44,10.0,NNE,5.8,-,N/A,,Clear,30,2013-10-14 09:35:00
4:55 AM,41.5,37.8,86,30.44,10.0,NNE,4.6,-,N/A,,Clear,30,2013-10-14 09:55:00
5:15 AM,41.7,38.1,87,30.43,10.0,NE,3.5,-,N/A,,Clear,40,2013-10-14 10:15:00
5:35 AM,40.6,37.0,87,30.44,10.0,NNE,3.5,-,N/A,,Clear,20,2013-10-14 10:35:00
5:55 AM,39.7,36.7,89,30.44,10.0,Calm,Calm,-,N/A,,Clear,0,2013-10-14 10:55:00
6:15 AM,39.2,36.7,91,30.45,10.0,Calm,Calm,-,N/A,,Clear,0,2013-10-14 11:15:00
6:35 AM,37.4,35.1,91,30.45,10.0,Calm,Calm,-,N/A,,Clear,0,2013-10-14 11:35:00
6:55 AM,36.9,34.9,93,30.46,10.0,Calm,Calm,-,N/A,,Clear,0,2013-10-14 11:55:00
7:15 AM,36.5,34.3,92,30.45,10.0,Calm,Calm,-,N/A,,Clear,0,2013-10-14 12:15:00
7:35 AM,37.8,36.0,93,30.45,10.0,North,4.6,-,N/A,,Clear,10,2013-10-14 12:35:00
7:55 AM,40.5,37.9,91,30.44,10.0,NNE,3.5,-,N/A,,Clear,30,2013-10-14 12:55:00
8:15 AM,43.0,39.9,89,30.44,10.0,NNE,4.6,-,N/A,,Clear,30,2013-10-14 13:15:00
8:35 AM,44.6,40.6,86,30.44,10.0,NNE,4.6,-,N/A,,Clear,20,2013-10-14 13:35:00
8:55 AM,45.7,41.4,85,30.44,10.0,Calm,Calm,-,N/A,,Clear,0,2013-10-14 13:55:00
9:15 AM,46.8,41.2,81,30.43,10.0,ENE,4.6,-,N/A,,Clear,60,2013-10-14 14:15:00
9:35 AM,47.5,41.4,79,30.43,10.0,Calm,Calm,-,N/A,,Clear,0,2013-10-14 14:35:00
9:55 AM,49.6,43.0,78,30.42,10.0,NE,3.5,-,N/A,,Clear,40,2013-10-14 14:55:00
10:15 AM,50.2,44.1,79,30.41,10.0,NE,4.6,-,N/A,,Clear,40,2013-10-14 15:15:00
10:35 AM,51.1,45.1,80,30.42,10.0,Calm,Calm,-,N/A,,Clear,0,2013-10-14 15:35:00
10:55 AM,54.5,46.2,74,30.42,10.0,NE,3.5,-,N/A,,Clear,40,2013-10-14 15:55:00
11:15 AM,55.0,46.8,74,30.42,10.0,NNE,5.8,-,N/A,,Clear,30,2013-10-14 16:15:00
11:35 AM,56.8,46.9,69,30.41,10.0,NE,8.1,-,N/A,,Clear,50,2013-10-14 16:35:00
11:55 AM,57.9,43.2,58,30.41,10.0,NNE,3.5,-,N/A,,Clear,30,2013-10-14 16:55:00
12:15 PM,59.9,38.5,45,30.41,10.0,ESE,5.8,-,N/A,,Scattered Clouds,120,2013-10-14 17:15:00
12:35 PM,60.6,39.6,46,30.40,10.0,East,3.5,-,N/A,,Clear,100,2013-10-14 17:35:00
12:55 PM,61.0,39.4,45,30.39,10.0,East,6.9,-,N/A,,Clear,80,2013-10-14 17:55:00
1:15 PM,60.6,39.6,46,30.38,10.0,SSE,6.9,-,N/A,,Scattered Clouds,150,2013-10-14 18:15:00
1:35 PM,61.0,39.7,46,30.36,10.0,ESE,9.2,-,N/A,,Clear,120,2013-10-14 18:35:00
1:55 PM,61.0,39.9,46,30.36,10.0,ESE,9.2,-,N/A,,Scattered Clouds,120,2013-10-14 18:55:00
2:15 PM,61.3,40.5,46,30.35,10.0,East,4.6,-,N/A,,Scattered Clouds,100,2013-10-14 19:15:00
2:35 PM,61.7,39.6,44,30.34,10.0,ESE,5.8,-,N/A,,Scattered Clouds,120,2013-10-14 19:35:00
2:55 PM,61.7,40.5,46,30.32,10.0,SE,8.1,-,N/A,,Scattered Clouds,140,2013-10-14 19:55:00
3:15 PM,61.9,40.5,45,30.31,10.0,ESE,8.1,-,N/A,,Scattered Clouds,110,2013-10-14 20:15:00
3:35 PM,61.9,39.9,44,30.29,10.0,East,6.9,-,N/A,,Clear,100,2013-10-14 20:35:00
3:55 PM,62.1,40.3,45,30.29,10.0,ESE,6.9,-,N/A,,Clear,120,2013-10-14 20:55:00
4:15 PM,60.8,40.3,47,30.28,10.0,ESE,8.1,-,N/A,,Clear,110,2013-10-14 21:15:00
4:35 PM,59.0,41.5,52,30.27,10.0,East,6.9,-,N/A,,Clear,90,2013-10-14 21:35:00
4:55 PM,59.0,41.9,53,30.27,10.0,ESE,6.9,-,N/A,,Clear,110,2013-10-14 21:55:00
5:15 PM,57.4,42.8,58,30.27,10.0,ESE,8.1,-,N/A,,Clear,120,2013-10-14 22:15:00
5:35 PM,55.4,43.0,63,30.27,10.0,East,9.2,-,N/A,,Clear,100,2013-10-14 22:35:00
5:55 PM,54.5,44.1,68,30.26,10.0,East,9.2,-,N/A,,Clear,100,2013-10-14 22:55:00
6:15 PM,53.6,44.8,72,30.26,10.0,East,9.2,-,N/A,,Clear,100,2013-10-14 23:15:00
6:35 PM,53.8,44.8,72,30.26,10.0,ESE,9.2,-,N/A,,Mostly Cloudy,110,2013-10-14 23:35:00
6:55 PM,53.8,44.6,71,30.27,10.0,ESE,10.4,-,N/A,,Mostly Cloudy,120,2013-10-14 23:55:00
7:15 PM,53.8,44.2,70,30.26,10.0,ESE,11.5,-,N/A,,Overcast,120,2013-10-15 00:15:00
7:35 PM,53.2,43.3,69,30.26,10.0,ESE,10.4,-,N/A,,Overcast,120,2013-10-15 00:35:00
7:55 PM,51.8,43.2,72,30.26,10.0,ESE,8.1,-,N/A,,Mostly Cloudy,120,2013-10-15 00:55:00
8:15 PM,50.9,43.3,75,30.26,10.0,ESE,5.8,-,N/A,,Scattered Clouds,110,2013-10-15 01:15:00
8:35 PM,49.3,43.0,79,30.26,10.0,ESE,5.8,-,N/A,,Clear,110,2013-10-15 01:35:00
8:55 PM,48.2,42.8,82,30.26,10.0,East,4.6,-,N/A,,Clear,100,2013-10-15 01:55:00
9:15 PM,48.4,43.0,82,30.26,10.0,Calm,Calm,-,N/A,,Clear,0,2013-10-15 02:15:00
9:35 PM,46.6,41.9,84,30.25,10.0,ESE,3.5,-,N/A,,Clear,110,2013-10-15 02:35:00
9:55 PM,46.8,43.0,87,30.25,10.0,Calm,Calm,-,N/A,,Clear,0,2013-10-15 02:55:00
10:15 PM,46.2,42.4,87,30.25,10.0,ESE,3.5,-,N/A,,Clear,110,2013-10-15 03:15:00
10:35 PM,44.1,40.8,88,30.23,10.0,East,3.5,-,N/A,,Clear,90,2013-10-15 03:35:00
10:55 PM,45.5,42.6,90,30.23,10.0,ESE,3.5,-,N/A,,Clear,120,2013-10-15 03:55:00
11:15 PM,43.7,41.0,90,30.21,10.0,East,6.9,-,N/A,,Clear,80,2013-10-15 04:15:00
11:35 PM,47.8,44.1,87,30.20,10.0,East,5.8,-,N/A,,Clear,80,2013-10-15 04:35:00
11:55 PM,45.0,41.2,87,30.20,10.0,East,3.5,-,N/A,,Clear,90,2013-10-15 04:55:00